Regional Weather Roundup
Issued by NWS

Home | Current Version | Previous Version | Graphics & Text | Print | Product List | Glossary On
Versions: 1 2 3 4 5 6 7 8 9 10 11 12 13 14 15 16 17 18 19 20 21 22 23 24 25 26 27 28 29 30 31 32 33 34 35 36 37 38 39 40 41 42 43 44 45 46 47 48 49 50
000
ASUS43 KDMX 301503
RWRIA

WEATHER ROUNDUP FOR IOWA
NATIONAL WEATHER SERVICE DES MOINES IA
1000 AM CDT SAT JUL 30 2016

NOTE: "FAIR" INDICATES FEW OR NO CLOUDS BELOW 12,000 FEET WITH NO
SIGNIFICANT WEATHER AND/OR OBSTRUCTIONS TO VISIBILITY.

* - THESE STATIONS ARE NOT NWS STATIONS...THUS NOT UNDER NWS
QUALITY CONTROL.  THEY ALSO DO NOT REPORT WEATHER SUCH
AS PRECIPITATION OR FOG.

IAZ001>003-012>014-020>022-031>034-043>046-301600-
   NORTHWEST IOWA

CITY           SKY/WX    TMP DP  RH WIND       PRES   REMARKS
CARROLL *      CLOUDY    72  64  78 CALM      30.04S
CHEROKEE *     SUNNY     72  62  71 CALM      30.05S
DENISON *      CLOUDY    72  64  78 CALM      30.03S
LE MARS *      SUNNY     72  63  73 CALM      30.05F
SHELDON *      SUNNY     72  59  64 S3        30.04S
SIOUX CITY     MOSUNNY   73  62  68 S8        30.04S
SPENCER        SUNNY     72  56  57 VRB3      30.05S
STORM LAKE *   PTSUNNY   72  63  73 CALM      30.06S
$$

IAZ055>058-069>071-079>083-090>094-301600-
   SOUTHWEST IOWA

CITY           SKY/WX    TMP DP  RH WIND       PRES   REMARKS
ATLANTIC *     MOSUNNY   72  64  78 CALM      30.05R
CLARINDA *       N/A     73  66  78 MISG      30.05F
COUNCIL BLFS * CLOUDY    72  64  78 NE5       30.05F
CRESTON *      PTSUNNY   72  64  78 CALM      30.06R
HARLAN  *      CLOUDY    72  66  83 CALM      30.08S
LAMONI         CLOUDY    71  65  81 N8        30.04R
RED OAK *      MOSUNNY   72  66  83 CALM      30.04F
SHENANDOAH *   SUNNY     72  66  83 CALM      30.05F
$$

IAZ047>049-059>061-072>074-084-301600-
   CENTRAL IOWA

CITY           SKY/WX    TMP DP  RH WIND       PRES   REMARKS
AMES           CLOUDY    71  67  87 CALM      30.03S
ANKENY *         N/A    N/A N/A N/A MISG        N/A
BOONE *        CLOUDY    70  66  88 CALM      30.03S
CHARITON *       N/A    N/A N/A N/A MISG        N/A
DES MOINES     CLOUDY    72  66  81 NW5       30.02S
GRINNELL*      CLOUDY    70  65  86 CALM      30.03S
KNOXVILLE *    CLOUDY    70  66  88 NW6       30.01S
MARSHALLTOWN   CLOUDY    71  67  87 CALM      30.02S
NEWTON *       CLOUDY    70  68  94 NE3       30.02S
PELLA *        PTSUNNY   69  67  92 CALM      30.03  FOG
PERRY *        CLOUDY    72  67  87 CALM      30.04S
$$

IAZ004>006-015-016-023>025-035-036-301600-
   NORTH CENTRAL IOWA

CITY           SKY/WX    TMP DP  RH WIND       PRES   REMARKS
ALGONA *       CLOUDY    70  63  78 CALM      30.05S
ESTHERVILLE    SUNNY     71  57  61 CALM      30.05S
FORT DODGE *   CLOUDY    70  64  83 SE3       30.05S
MASON CITY     CLOUDY    69  65  86 CALM      30.06S
FOREST CITY *  CLOUDY    70  64  83 E5        30.04S
IOWA FALLS *   CLOUDY    69  65  89 CALM      30.05S
$$

IAZ007>011-017>019-026>030-037>042-050>054-066-301600-
   NORTHEAST IOWA

CITY           SKY/WX    TMP DP  RH WIND       PRES   REMARKS
CEDAR RAPIDS   PTSUNNY   72  68  87 N3        29.99S
CHARLES CITY * CLOUDY    70  66  88 CALM      30.04S
CLINTON *      CLOUDY    71  67  87 NE9       30.00S
DECORAH *      MOSUNNY   70  64  83 VRB3      30.02F
DUBUQUE        MOSUNNY   70  66  87 E8        30.02F
MONTICELLO *   CLOUDY    73  68  83 MISG      29.99F
OELWEIN *      MOSUNNY   72  66  83 VRB3      30.03S
WATERLOO       MOSUNNY   73  64  73 CALM      30.01S
$$

IAZ064-065-067-068-078-301600-
   EAST CENTRAL IOWA

CITY           SKY/WX    TMP DP  RH WIND       PRES   REMARKS
DAVENPORT      PTSUNNY   72  67  84 NE8       29.99F
IOWA CITY      PTSUNNY   74  66  76 CALM      30.00S
MT. PLEASANT * PTSUNNY   74  70  87 CALM      30.00S
MUSCATINE *    CLOUDY    73  66  78 CALM      29.99S
QUAD CITIES    CLOUDY    74  67  78 VRB6      29.98F
$$

IAZ062-063-075>077-085>089-095>099-301600-
   SOUTHEAST IOWA

CITY           SKY/WX    TMP DP  RH WIND       PRES   REMARKS
BURLINGTON     MOSUNNY   75  68  78 N7        29.98F
FAIRFIELD *    CLOUDY    72  66  83 CALM      30.00S
KEOKUK *       CLOUDY    72  66  83 NW6       29.99S
OSKALOOSA *    CLOUDY    69  67  92 CALM      30.02S FOG
CENTERVILLE *    N/A     72  64  78 NW6       30.03S
OTTUMWA        CLOUDY    71  66  84 NW5       30.01R
WASHINGTON *   CLOUDY    72  68  88 CALM      30.01S
$$

ABBREVIATIONS USED IN REMARKS
   TC - TEMPERATURES IN CELSIUS
  WCI - WIND CHILL INDEX
   HX - HEAT INDEX
  VSB - VISIBILITY
$$




USA.gov is the U.S. government's official web portal to all federal, state and local government web resources and services.